User: anonymous   Login
Location: Astronight Observatory
(42.6003°N, 71.2981°W)
Time: 03:37:31
(UTC-04:00)
Language:

DELTA 2 R/B (1) - Orbit

View from above orbital plane
View from above orbital plane
View from above satellite
View from above satellite

Ground track
Ground track

The orbit data is extracted from the following two-line orbital elements,

1 27665U 03005C   17230.90943740 -.00000043 +00000-0 +16572-4 0  9996
2 27665 039.5756 150.8936 0008976 309.2837 081.1327 14.28449791759818
Epoch (UTC): 18 August 2017 21:49:35
Eccentricity: 0.0008976
inclination: 39.5756°
perigee height: 790 km
apogee height: 803 km
right ascension of ascending node: 150.8936°
argument of perigee: 309.2837°
revolutions per day: 14.28449791
mean anomaly at epoch: 81.1327°
orbit number at epoch: 75981

The dashed part of the orbit path shows where the satellite is in the earth's shadow,  

DLR